Simultaneous Nadir Overpasses (SNOs) Predictions

Prediction of SNOs between METOP-B and TERRA Satellite Orbit:

Table of predicted SNOs for the next 14.0 days since TLE Epoch: 5/2/2013
Index Date (METOP-B) Time (METOP-B) Lat,Lon (METOP-B) SZA (METOP-B ) Date (TERRA) Time (TERRA) Lat,Lon (TERRA) SZA (TERRA ) Distance(km) Time Diff (sec)
1 05/02/2013 22:56:55 81.29,-117.29 68.59 05/02/2013 22:57:30 81.30,-117.18 68.62 2.01 35
2 05/02/2013 23:47:35 -81.30, 50.52 111.37 05/02/2013 23:46:57 -81.29, 50.34 111.41 3.13 38
3 05/05/2013 18:31:20 81.29, -50.98 67.78 05/05/2013 18:31:43 81.28, -51.02 67.78 0.98 23
4 05/05/2013 19:22:00 -81.30, 116.82 112.18 05/05/2013 19:21:09 -81.30, 116.91 112.19 1.49 51
5 05/08/2013 14:05:43 81.29, 15.66 67.04 05/08/2013 14:05:53 81.30, 15.71 67.06 1.02 10
6 05/08/2013 14:56:23 -81.30,-176.56 112.92 05/08/2013 14:55:20 -81.30,-176.72 112.97 2.74 63
7 05/11/2013 08:49:28 -81.29, -85.69 113.74 05/11/2013 08:50:39 -81.28, -85.81 113.72 2.01 71
8 05/11/2013 09:40:07 81.30, 82.23 66.33 05/11/2013 09:40:04 81.30, 82.24 66.34 0.88 3
9 05/14/2013 04:23:52 -81.29, -19.21 114.42 05/14/2013 04:24:49 -81.30, -19.06 114.37 2.69 57




NCC Satellite Simultaneous Nadir Overpasses (SNOs) Prediction Service
